{"data":{"norad_id":65912,"intl_designator":"2025-225C","name":"STARLINK-35508","alt_names":[],"object_type":"PAYLOAD","status":"ACTIVE","operator":null,"country":"US","launch_date":"2025-10-08","launch_site_code":"AFWTR","launch_vehicle":null,"mission":null,"orbit_class":"UNKNOWN","rcs_meters":null,"size_class":null,"mass_kg":null,"dimensions":null,"purposes":["comms"],"wikipedia_slug":null,"has_3d_model":false,"image_url":null,"decayed_at":null,"tle_current":{"epoch":"2026-05-24T13:43:55.927776Z","epoch_age_seconds":122532,"freshness":"FRESH","line1":"1 65912U 25225C   26144.57217509  .00557071  00000+0  16962-1 0  9991","line2":"2 65912  53.1582 173.3881 0002155  96.4350 263.6896 15.31495239 36023","mean_motion":15.31495239,"eccentricity":0.0002155,"inclination_deg":53.1582,"raan_deg":173.3881,"arg_perigee_deg":96.435,"mean_anomaly_deg":263.6896,"bstar":0.016962,"rev_number":3602,"period_min":94.025757529632,"perigee_km":469.87438057306,"apogee_km":472.82650966191,"semimajor_km":6849.4874451175,"source":"CELESTRAK","updated_at":"2026-05-25T13:38:20.986019Z"}}}